Home > Weather > Willemstad > Past weeks

Flag for Curaçao Past Weather in Willemstad, Curaçao — Yesterday and Last 2 Weeks

Now
82 °F

Passing clouds.


Feels Like: 89 °F
Forecast: 83 / 85 °F
Wind: N/A

Location: Flamingo Airport - Bonaire

Current Time: Jun 30, 2016 at 4:46:53 AM

Latest Report: Jun 30, 2016 at 3:55 AM


Visibility: N/A

Pressure: 29.92 "Hg

Humidity: 79%

Dew Point: 75 °F

Location of WillemstadLocation

Past Weather in Willemstad — Graph

°F

Willemstad Temperature Yesterday

Maximum temperature yesterday: 90 °F (at 12:55 PM)
Minimum temperature yesterday: 82 °F (at 12:55 AM)
Average temperature yesterday: 85 °F

High & Low Weather Summary for the Past Weeks

 TemperatureHumidityPressure
High90 °F (Jun 15, 12:55 PM)94% (Jun 24, 6:55 AM)30.07 "Hg (Jun 24, 6:55 AM)
Low79 °F (Jun 24, 6:55 AM)59% (Jun 15, 2:55 PM)29.83 "Hg (Jun 19, 4:55 PM)
Average84 °F73%29.94 "Hg
* Reported Jun 15 2:55 AM — Jun 30 2:55 AM, Willemstad, Weather by CustomWeather, © 2016

Note: Actual official high and low records may vary slightly from our data, if they occured in-between our weather recording intervals... More about our weather records

Advertising

Willemstad Weather History for the Previous 24 Hours

Scroll right to see more
 ConditionsComfort  
Time TempWeatherWind HumidityBarometerVisibility
2:55 AM
Thu, Jun 30
82 °FPassing clouds.N/A79%29.89 "HgN/A
1:55 AM82 °FPassing clouds.N/A79%29.92 "HgN/A
12:55 AM81 °FPartly cloudy.N/A89%29.92 "HgN/A
11:55 PM
Wed, Jun 29
82 °FPassing clouds.N/A79%29.95 "HgN/A
10:55 PM82 °FPartly cloudy.N/A79%29.95 "HgN/A
9:55 PM82 °FPartly cloudy.N/A79%29.95 "HgN/A
8:55 PM82 °FPassing clouds.N/A79%29.92 "HgN/A
7:55 PM82 °FPassing clouds.18 mph79%29.92 "HgN/A
6:55 PM84 °FPassing clouds.N/A74%29.86 "HgN/A
5:55 PM84 °FScattered clouds.18 mph74%29.86 "HgN/A
4:55 PM86 °FPartly sunny.N/A70%29.86 "HgN/A
3:55 PM88 °FPartly sunny.20 mph66%29.86 "HgN/A
2:55 PM90 °FPartly sunny.21 mph63%29.89 "HgN/A
1:55 PM90 °FPassing clouds.N/A59%29.89 "HgN/A
12:55 PM90 °FPassing clouds.21 mph63%29.92 "HgN/A
11:55 AM88 °FScattered clouds.24 mph66%29.95 "HgN/A
10:55 AM88 °FScattered clouds.23 mph66%29.95 "HgN/A
9:55 AM86 °FScattered clouds.21 mph70%29.95 "HgN/A
8:55 AM86 °FScattered clouds.23 mph70%29.95 "HgN/A
7:55 AM84 °FBroken clouds.22 mph74%29.92 "HgN/A
6:55 AM82 °FScattered clouds.18 mph79%29.92 "HgN/A
5:55 AM82 °FClear.N/A79%29.89 "HgN/A
4:55 AM82 °FPassing clouds.N/A79%29.89 "HgN/A
Weather by CustomWeather, © 2016

See weather overviewHow to use our weather pages